Location: Brookfield Center
(41.2406°N, 80.5579°W)
Time: 17:34:48
(UTC+00:00)

Cosmos 1697 Rocket - Pass Details

Date: 18 January 2020
Orbit: 832 x 843 km, 71.0° (Epoch: 28 February)

Event Time Altitude Azimuth Distance (km) Brightness Sun altitude
Exits shadow 10:31:38 - 201° (SSW) 2,516 5.0 -24.6°
Reaches altitude 10° 10:31:51 10° 201° (SSW) 2,434 4.9 -24.6°
Maximum altitude 10:37:26 87° 114° (ESE) 839 2.6 -23.5°
Drops below altitude 10° 10:43:04 10° 25° (NNE) 2,448 5.3 -22.5°
Sets 10:45:31 0° 25° (NNE) 3,387 6.0 -22.0°
